Time,TemperatureF,DewpointF,PressureIn,WindDirection,WindDirectionDegrees,WindSpeedMPH,WindSpeedGustMPH,Humidity,HourlyPrecipIn,Conditions,Clouds,dailyrainin,SoftwareType,DateUTC
2013-09-16 00:01:00,52.0,49.1,30.08,North,0,0.0,0.0,90,0.02,,,0.00,WUHU21623XXSP,2013-09-16 04:01:00,
2013-09-16 00:02:00,52.0,49.1,30.08,North,0,0.0,0.0,90,0.02,,,0.00,WUHU21623XXSP,2013-09-16 04:02:00,
2013-09-16 00:07:00,52.0,49.1,30.08,North,0,0.0,0.0,90,0.02,,,0.00,WUHU21623XXSP,2013-09-16 04:07:00,
2013-09-16 00:12:00,52.0,49.1,30.07,North,0,0.0,0.0,90,0.00,,,0.00,WUHU21623XXSP,2013-09-16 04:12:00,
2013-09-16 00:17:00,52.0,49.1,30.07,North,0,0.0,0.0,90,0.00,,,0.00,WUHU21623XXSP,2013-09-16 04:17:00,
2013-09-16 00:22:00,52.2,49.6,30.07,North,0,0.0,0.0,91,0.00,,,0.00,WUHU21623XXSP,2013-09-16 04:22:00,
2013-09-16 00:27:00,52.2,49.6,30.07,North,0,0.0,0.0,91,0.00,,,0.00,WUHU21623XXSP,2013-09-16 04:27:00,
2013-09-16 00:32:00,52.2,49.6,30.07,North,0,0.0,0.0,91,0.00,,,0.00,WUHU21623XXSP,2013-09-16 04:32:00,
2013-09-16 00:37:00,52.2,49.6,30.07,North,0,0.0,0.0,91,0.00,,,0.00,WUHU21623XXSP,2013-09-16 04:37:00,
2013-09-16 00:42:00,52.0,49.4,30.07,North,0,0.0,0.0,91,0.00,,,0.00,WUHU21623XXSP,2013-09-16 04:42:00,
2013-09-16 00:47:00,52.0,49.4,30.07,North,0,0.0,0.0,91,0.00,,,0.00,WUHU21623XXSP,2013-09-16 04:47:00,
2013-09-16 00:52:00,52.0,49.4,30.07,North,0,0.0,0.0,91,0.00,,,0.00,WUHU21623XXSP,2013-09-16 04:52:00,
2013-09-16 00:57:00,52.0,49.4,30.07,North,0,0.0,0.0,91,0.00,,,0.00,WUHU21623XXSP,2013-09-16 04:57:00,
2013-09-16 01:02:00,51.8,49.2,30.07,North,0,0.0,0.0,91,0.00,,,0.00,WUHU21623XXSP,2013-09-16 05:02:00,
2013-09-16 01:07:00,51.8,49.2,30.07,North,0,0.0,0.0,91,0.00,,,0.00,WUHU21623XXSP,2013-09-16 05:07:00,
2013-09-16 01:12:00,51.8,49.5,30.07,North,0,0.0,0.0,92,0.00,,,0.00,WUHU21623XXSP,2013-09-16 05:12:00,
2013-09-16 01:17:00,51.8,49.5,30.07,North,0,0.0,0.0,92,0.00,,,0.00,WUHU21623XXSP,2013-09-16 05:17:00,
2013-09-16 01:22:00,51.8,49.5,30.07,NNW,337,0.0,0.0,92,0.00,,,0.00,WUHU21623XXSP,2013-09-16 05:22:00,
2013-09-16 01:27:00,51.8,49.5,30.07,NNW,337,0.0,0.0,92,0.00,,,0.00,WUHU21623XXSP,2013-09-16 05:27:00,
2013-09-16 01:32:00,51.8,49.5,30.07,NNW,337,0.0,0.0,92,0.00,,,0.00,WUHU21623XXSP,2013-09-16 05:32:00,
2013-09-16 01:37:00,51.8,49.5,30.07,NNW,337,0.0,0.0,92,0.00,,,0.00,WUHU21623XXSP,2013-09-16 05:37:00,
2013-09-16 01:42:00,51.8,49.5,30.07,NNW,337,0.0,0.0,92,0.00,,,0.00,WUHU21623XXSP,2013-09-16 05:42:00,
2013-09-16 01:47:00,52.0,49.7,30.06,WNW,292,0.0,0.0,92,0.00,,,0.00,WUHU21623XXSP,2013-09-16 05:47:00,
2013-09-16 01:52:00,52.0,49.7,30.06,WNW,292,0.0,0.0,92,0.00,,,0.00,WUHU21623XXSP,2013-09-16 05:52:00,
2013-09-16 01:57:00,52.0,49.7,30.06,WNW,292,0.0,0.0,92,0.00,,,0.00,WUHU21623XXSP,2013-09-16 05:57:00,
2013-09-16 02:02:00,52.0,49.7,30.06,WNW,292,0.0,0.0,92,0.00,,,0.00,WUHU21623XXSP,2013-09-16 06:02:00,
2013-09-16 02:07:00,52.0,49.7,30.06,WNW,292,0.0,0.0,92,0.00,,,0.00,WUHU21623XXSP,2013-09-16 06:07:00,
2013-09-16 02:12:00,52.0,49.7,30.06,WNW,292,0.0,0.0,92,0.00,,,0.00,WUHU21623XXSP,2013-09-16 06:12:00,
2013-09-16 02:17:00,52.0,49.7,30.06,WNW,292,0.0,0.0,92,0.00,,,0.00,WUHU21623XXSP,2013-09-16 06:17:00,
2013-09-16 02:22:00,52.0,49.7,30.06,WNW,292,0.0,0.0,92,0.00,,,0.00,WUHU21623XXSP,2013-09-16 06:22:00,
2013-09-16 02:27:00,52.0,49.7,30.06,WNW,292,0.0,0.0,92,0.00,,,0.00,WUHU21623XXSP,2013-09-16 06:27:00,
2013-09-16 02:32:00,52.0,50.0,30.07,WNW,292,0.0,0.0,93,0.00,,,0.00,WUHU21623XXSP,2013-09-16 06:32:00,
2013-09-16 02:37:00,52.0,50.0,30.07,WNW,292,0.0,0.0,93,0.00,,,0.00,WUHU21623XXSP,2013-09-16 06:37:00,
2013-09-16 02:42:00,52.0,50.0,30.07,WNW,292,0.0,0.0,93,0.00,,,0.00,WUHU21623XXSP,2013-09-16 06:42:00,
2013-09-16 02:47:00,52.0,50.0,30.07,WNW,292,0.0,0.0,93,0.00,,,0.00,WUHU21623XXSP,2013-09-16 06:47:00,
2013-09-16 02:52:00,52.0,50.0,30.07,WNW,292,0.0,0.0,93,0.00,,,0.00,WUHU21623XXSP,2013-09-16 06:52:00,
2013-09-16 02:57:00,52.0,50.0,30.07,WNW,292,0.0,0.0,93,0.00,,,0.00,WUHU21623XXSP,2013-09-16 06:57:00,
2013-09-16 03:02:00,52.0,50.0,30.06,WNW,292,0.0,0.0,93,0.00,,,0.00,WUHU21623XXSP,2013-09-16 07:02:00,
2013-09-16 03:07:00,51.8,49.8,30.07,WNW,292,0.0,0.0,93,0.00,,,0.00,WUHU21623XXSP,2013-09-16 07:07:00,
2013-09-16 03:12:00,51.8,49.8,30.07,WNW,292,0.0,0.0,93,0.00,,,0.00,WUHU21623XXSP,2013-09-16 07:12:00,
2013-09-16 03:17:00,51.8,49.8,30.07,WNW,292,0.0,0.0,93,0.00,,,0.00,WUHU21623XXSP,2013-09-16 07:17:00,
2013-09-16 03:22:00,51.6,49.6,30.06,WNW,292,0.0,0.0,93,0.00,,,0.00,WUHU21623XXSP,2013-09-16 07:22:00,
2013-09-16 03:27:00,51.6,49.6,30.06,WNW,292,0.0,0.0,93,0.00,,,0.00,WUHU21623XXSP,2013-09-16 07:27:00,
2013-09-16 03:32:00,51.6,49.6,30.06,WNW,292,0.0,0.0,93,0.00,,,0.00,WUHU21623XXSP,2013-09-16 07:32:00,
2013-09-16 03:37:00,51.6,49.6,30.06,WNW,292,0.0,0.0,93,0.00,,,0.00,WUHU21623XXSP,2013-09-16 07:37:00,
2013-09-16 03:42:00,51.6,49.6,30.06,WNW,292,0.0,0.0,93,0.00,,,0.00,WUHU21623XXSP,2013-09-16 07:42:00,
2013-09-16 03:47:00,51.6,49.6,30.06,WNW,292,0.0,0.0,93,0.00,,,0.00,WUHU21623XXSP,2013-09-16 07:47:00,
2013-09-16 03:52:00,51.6,49.6,30.06,WNW,292,0.0,0.0,93,0.00,,,0.00,WUHU21623XXSP,2013-09-16 07:52:00,
2013-09-16 03:57:00,51.6,49.6,30.06,WNW,292,0.0,0.0,93,0.00,,,0.00,WUHU21623XXSP,2013-09-16 07:57:00,
2013-09-16 04:02:00,51.6,49.6,30.06,WNW,292,0.0,0.0,93,0.00,,,0.00,WUHU21623XXSP,2013-09-16 08:02:00,
2013-09-16 04:07:00,51.6,49.6,30.06,WNW,292,0.0,0.0,93,0.00,,,0.00,WUHU21623XXSP,2013-09-16 08:07:00,
2013-09-16 04:12:00,51.6,49.6,30.06,WNW,292,0.0,0.0,93,0.00,,,0.00,WUHU21623XXSP,2013-09-16 08:12:00,
2013-09-16 04:17:00,51.4,49.4,30.06,WNW,292,0.0,0.0,93,0.00,,,0.00,WUHU21623XXSP,2013-09-16 08:17:00,
2013-09-16 04:22:00,51.4,49.4,30.06,WNW,292,0.0,0.0,93,0.00,,,0.00,WUHU21623XXSP,2013-09-16 08:22:00,
2013-09-16 04:27:00,51.4,49.4,30.06,WNW,292,0.0,0.0,93,0.00,,,0.00,WUHU21623XXSP,2013-09-16 08:27:00,
2013-09-16 04:32:00,51.6,49.6,30.06,WNW,292,0.0,0.0,93,0.00,,,0.00,WUHU21623XXSP,2013-09-16 08:32:00,
2013-09-16 04:37:00,51.6,49.6,30.07,WNW,292,0.0,0.0,93,0.00,,,0.00,WUHU21623XXSP,2013-09-16 08:37:00,
2013-09-16 04:42:00,51.6,49.6,30.07,WNW,292,0.0,0.0,93,0.00,,,0.00,WUHU21623XXSP,2013-09-16 08:42:00,
2013-09-16 04:47:00,51.8,49.8,30.07,WNW,292,0.0,0.0,93,0.00,,,0.00,WUHU21623XXSP,2013-09-16 08:47:00,
2013-09-16 04:52:00,52.0,50.0,30.07,WNW,292,0.0,0.0,93,0.00,,,0.00,WUHU21623XXSP,2013-09-16 08:52:00,
2013-09-16 04:57:00,52.2,50.1,30.07,WNW,292,0.0,0.0,93,0.00,,,0.00,WUHU21623XXSP,2013-09-16 08:57:00,
2013-09-16 05:02:00,52.2,50.1,30.07,WNW,292,0.0,0.0,93,0.00,,,0.00,WUHU21623XXSP,2013-09-16 09:02:00,
2013-09-16 05:07:00,52.2,50.1,30.06,WNW,292,0.0,0.0,93,0.00,,,0.00,WUHU21623XXSP,2013-09-16 09:07:00,
2013-09-16 05:12:00,52.0,50.0,30.06,WNW,292,0.0,0.0,93,0.00,,,0.00,WUHU21623XXSP,2013-09-16 09:12:00,
2013-09-16 05:17:00,51.8,49.8,30.06,WNW,292,0.0,0.0,93,0.00,,,0.00,WUHU21623XXSP,2013-09-16 09:17:00,
2013-09-16 05:22:00,51.6,49.9,30.06,WNW,292,0.0,0.0,94,0.00,,,0.00,WUHU21623XXSP,2013-09-16 09:22:00,
2013-09-16 05:27:00,51.6,49.9,30.06,WNW,292,0.0,0.0,94,0.00,,,0.00,WUHU21623XXSP,2013-09-16 09:27:00,
2013-09-16 05:32:00,51.4,49.7,30.06,WNW,292,0.0,0.0,94,0.00,,,0.00,WUHU21623XXSP,2013-09-16 09:32:00,
2013-09-16 05:37:00,51.4,49.7,30.06,WNW,292,0.0,0.0,94,0.00,,,0.00,WUHU21623XXSP,2013-09-16 09:37:00,
2013-09-16 05:42:00,51.3,49.5,30.06,WNW,292,0.0,0.0,94,0.00,,,0.00,WUHU21623XXSP,2013-09-16 09:42:00,
2013-09-16 05:47:00,51.3,49.5,30.07,WNW,292,0.0,0.0,94,0.00,,,0.00,WUHU21623XXSP,2013-09-16 09:47:00,
2013-09-16 05:52:00,51.1,49.4,30.07,WNW,292,0.0,0.0,94,0.00,,,0.00,WUHU21623XXSP,2013-09-16 09:52:00,
2013-09-16 05:57:00,50.9,49.2,30.07,WNW,292,0.0,0.0,94,0.00,,,0.00,WUHU21623XXSP,2013-09-16 09:57:00,
2013-09-16 06:02:00,50.7,49.0,30.07,WNW,292,0.0,0.0,94,0.00,,,0.00,WUHU21623XXSP,2013-09-16 10:02:00,
2013-09-16 06:07:00,50.4,48.6,30.07,WNW,292,0.0,0.0,94,0.00,,,0.00,WUHU21623XXSP,2013-09-16 10:07:00,
2013-09-16 06:12:00,50.2,48.5,30.07,WNW,292,0.0,0.0,94,0.00,,,0.00,WUHU21623XXSP,2013-09-16 10:12:00,
2013-09-16 06:17:00,49.8,48.1,30.07,WNW,292,0.0,0.0,94,0.00,,,0.00,WUHU21623XXSP,2013-09-16 10:17:00,
2013-09-16 06:22:00,49.6,47.9,30.08,WNW,292,0.0,0.0,94,0.00,,,0.00,WUHU21623XXSP,2013-09-16 10:22:00,
2013-09-16 06:27:00,49.3,47.6,30.08,WNW,292,0.0,0.0,94,0.00,,,0.00,WUHU21623XXSP,2013-09-16 10:27:00,
2013-09-16 06:32:00,49.1,47.4,30.08,WNW,292,0.0,0.0,94,0.00,,,0.00,WUHU21623XXSP,2013-09-16 10:32:00,
2013-09-16 06:37:00,48.7,47.1,30.09,WNW,292,0.0,0.0,94,0.00,,,0.00,WUHU21623XXSP,2013-09-16 10:37:00,
2013-09-16 06:42:00,48.4,46.7,30.09,WNW,292,0.0,0.0,94,0.00,,,0.00,WUHU21623XXSP,2013-09-16 10:42:00,
2013-09-16 06:47:00,48.4,46.7,30.09,WNW,292,0.0,0.0,94,0.00,,,0.00,WUHU21623XXSP,2013-09-16 10:47:00,
2013-09-16 06:52:00,48.2,46.6,30.09,WNW,292,0.0,0.0,94,0.00,,,0.00,WUHU21623XXSP,2013-09-16 10:52:00,
2013-09-16 06:57:00,48.4,46.7,30.10,WNW,292,0.0,0.0,94,0.00,,,0.00,WUHU21623XXSP,2013-09-16 10:57:00,
2013-09-16 07:02:00,48.0,46.4,30.10,WNW,292,0.0,0.0,94,0.00,,,0.00,WUHU21623XXSP,2013-09-16 11:02:00,
2013-09-16 07:07:00,48.0,46.4,30.10,WNW,292,0.0,0.0,94,0.00,,,0.00,WUHU21623XXSP,2013-09-16 11:07:00,
2013-09-16 07:12:00,48.4,46.7,30.10,WNW,292,0.0,0.0,94,0.00,,,0.00,WUHU21623XXSP,2013-09-16 11:12:00,
2013-09-16 07:17:00,48.4,46.7,30.10,WNW,292,0.0,0.0,94,0.00,,,0.00,WUHU21623XXSP,2013-09-16 11:17:00,
2013-09-16 07:22:00,48.7,47.1,30.10,WNW,292,0.0,0.0,94,0.00,,,0.00,WUHU21623XXSP,2013-09-16 11:22:00,
2013-09-16 07:27:00,48.9,47.2,30.10,WNW,292,0.0,0.0,94,0.00,,,0.00,WUHU21623XXSP,2013-09-16 11:27:00,
2013-09-16 07:32:00,49.3,47.6,30.11,WNW,292,0.0,0.0,94,0.00,,,0.00,WUHU21623XXSP,2013-09-16 11:32:00,
2013-09-16 07:37:00,49.3,47.6,30.11,WNW,292,0.0,0.0,94,0.00,,,0.00,WUHU21623XXSP,2013-09-16 11:37:00,
2013-09-16 07:42:00,49.6,47.9,30.10,WNW,292,0.0,0.0,94,0.00,,,0.00,WUHU21623XXSP,2013-09-16 11:42:00,
2013-09-16 07:47:00,49.8,48.1,30.11,WNW,292,0.0,0.0,94,0.00,,,0.00,WUHU21623XXSP,2013-09-16 11:47:00,
2013-09-16 07:52:00,50.2,48.5,30.11,WNW,292,0.0,0.0,94,0.00,,,0.00,WUHU21623XXSP,2013-09-16 11:52:00,
2013-09-16 07:57:00,50.4,48.6,30.11,WNW,292,0.0,0.0,94,0.00,,,0.00,WUHU21623XXSP,2013-09-16 11:57:00,
2013-09-16 08:02:00,50.7,49.0,30.11,WNW,292,0.0,0.0,94,0.00,,,0.00,WUHU21623XXSP,2013-09-16 12:02:00,
2013-09-16 08:07:00,50.9,49.2,30.11,WNW,292,0.0,0.0,94,0.00,,,0.00,WUHU21623XXSP,2013-09-16 12:07:00,
2013-09-16 08:12:00,51.3,49.5,30.12,WNW,292,0.0,0.0,94,0.00,,,0.00,WUHU21623XXSP,2013-09-16 12:12:00,
2013-09-16 08:17:00,51.6,49.9,30.12,WNW,292,0.0,0.0,94,0.00,,,0.00,WUHU21623XXSP,2013-09-16 12:17:00,
2013-09-16 08:22:00,51.8,50.1,30.12,WNW,292,0.0,0.0,94,0.00,,,0.00,WUHU21623XXSP,2013-09-16 12:22:00,
2013-09-16 08:27:00,52.2,50.4,30.12,WNW,292,0.0,0.0,94,0.00,,,0.00,WUHU21623XXSP,2013-09-16 12:27:00,
2013-09-16 08:32:00,52.2,50.4,30.12,WNW,292,0.0,0.0,94,0.00,,,0.00,WUHU21623XXSP,2013-09-16 12:32:00,
2013-09-16 08:37:00,52.3,50.6,30.13,WNW,292,0.0,0.0,94,0.00,,,0.00,WUHU21623XXSP,2013-09-16 12:37:00,
2013-09-16 08:42:00,52.5,50.8,30.13,WNW,292,0.0,0.0,94,0.02,,,0.02,WUHU21623XXSP,2013-09-16 12:42:00,
2013-09-16 08:47:00,52.5,50.8,30.13,WNW,292,0.0,0.0,94,0.02,,,0.02,WUHU21623XXSP,2013-09-16 12:47:00,
2013-09-16 08:52:00,52.7,51.0,30.13,WNW,292,0.0,0.0,94,0.02,,,0.02,WUHU21623XXSP,2013-09-16 12:52:00,
2013-09-16 08:57:00,53.1,51.3,30.13,WNW,292,0.0,0.0,94,0.02,,,0.02,WUHU21623XXSP,2013-09-16 12:57:00,
2013-09-16 09:02:00,53.2,51.5,30.13,WNW,292,0.0,0.0,94,0.02,,,0.02,WUHU21623XXSP,2013-09-16 13:02:00,
2013-09-16 09:07:00,53.4,51.7,30.13,WNW,292,0.0,0.0,94,0.02,,,0.02,WUHU21623XXSP,2013-09-16 13:07:00,
2013-09-16 09:12:00,53.8,52.1,30.14,North,0,0.0,8.5,94,0.02,,,0.02,WUHU21623XXSP,2013-09-16 13:12:00,
2013-09-16 09:17:00,54.1,52.4,30.14,NNE,22,0.0,9.6,94,0.02,,,0.02,WUHU21623XXSP,2013-09-16 13:17:00,
2013-09-16 09:22:00,54.0,52.5,30.14,North,0,6.9,10.3,95,0.02,,,0.02,WUHU21623XXSP,2013-09-16 13:22:00,
2013-09-16 09:27:00,53.8,52.3,30.15,NNE,22,7.4,17.7,95,0.02,,,0.02,WUHU21623XXSP,2013-09-16 13:27:00,
2013-09-16 09:32:00,53.4,52.0,30.15,NNE,22,7.4,21.3,95,0.02,,,0.02,WUHU21623XXSP,2013-09-16 13:32:00,
2013-09-16 09:37:00,52.9,51.4,30.16,North,0,0.0,21.3,95,0.00,,,0.02,WUHU21623XXSP,2013-09-16 13:37:00,
2013-09-16 09:42:00,52.5,51.1,30.16,NE,45,0.0,16.6,95,0.02,,,0.04,WUHU21623XXSP,2013-09-16 13:42:00,
2013-09-16 09:47:00,52.3,50.9,30.16,NE,45,4.3,16.6,95,0.02,,,0.04,WUHU21623XXSP,2013-09-16 13:47:00,
2013-09-16 09:52:00,52.0,50.5,30.17,NNE,22,0.0,15.0,95,0.02,,,0.04,WUHU21623XXSP,2013-09-16 13:52:00,
2013-09-16 09:57:00,52.0,50.5,30.17,NNE,22,7.2,13.9,95,0.02,,,0.04,WUHU21623XXSP,2013-09-16 13:57:00,
2013-09-16 10:02:00,51.6,50.2,30.17,NNE,22,3.4,15.0,95,0.02,,,0.04,WUHU21623XXSP,2013-09-16 14:02:00,
2013-09-16 10:07:00,51.4,50.0,30.17,NNE,22,14.3,16.8,95,0.02,,,0.04,WUHU21623XXSP,2013-09-16 14:07:00,
2013-09-16 10:12:00,51.1,49.6,30.18,North,0,7.2,16.8,95,0.02,,,0.04,WUHU21623XXSP,2013-09-16 14:12:00,
2013-09-16 10:17:00,50.9,49.5,30.18,NNE,22,11.9,12.3,95,0.02,,,0.04,WUHU21623XXSP,2013-09-16 14:17:00,
2013-09-16 10:22:00,50.7,49.3,30.18,NNW,337,0.0,13.6,95,0.02,,,0.04,WUHU21623XXSP,2013-09-16 14:22:00,
2013-09-16 10:27:00,50.5,49.1,30.19,NNE,22,0.0,14.1,95,0.02,,,0.04,WUHU21623XXSP,2013-09-16 14:27:00,
2013-09-16 10:32:00,50.7,49.3,30.19,NNE,22,4.5,14.1,95,0.02,,,0.04,WUHU21623XXSP,2013-09-16 14:32:00,
2013-09-16 10:37:00,50.7,49.3,30.19,NE,45,0.0,12.3,95,0.00,,,0.04,WUHU21623XXSP,2013-09-16 14:37:00,
2013-09-16 10:42:00,50.5,49.1,30.19,NE,45,0.0,12.3,95,0.00,,,0.04,WUHU21623XXSP,2013-09-16 14:42:00,
2013-09-16 10:47:00,50.5,49.1,30.20,NNE,22,10.1,10.5,95,0.00,,,0.04,WUHU21623XXSP,2013-09-16 14:47:00,
2013-09-16 10:52:00,50.4,48.9,30.20,NNE,22,8.1,12.1,95,0.00,,,0.04,WUHU21623XXSP,2013-09-16 14:52:00,
2013-09-16 10:57:00,50.4,48.9,30.20,ENE,67,0.0,12.1,95,0.00,,,0.04,WUHU21623XXSP,2013-09-16 14:57:00,
2013-09-16 11:02:00,50.2,48.7,30.21,NNE,22,0.0,10.1,95,0.00,,,0.04,WUHU21623XXSP,2013-09-16 15:02:00,
2013-09-16 11:07:00,50.2,48.7,30.20,North,0,3.6,11.0,95,0.00,,,0.04,WUHU21623XXSP,2013-09-16 15:07:00,
2013-09-16 11:12:00,50.0,48.6,30.21,NNE,22,0.0,13.4,95,0.00,,,0.04,WUHU21623XXSP,2013-09-16 15:12:00,
2013-09-16 11:17:00,50.2,48.7,30.21,North,0,0.0,13.4,95,0.00,,,0.04,WUHU21623XXSP,2013-09-16 15:17:00,
2013-09-16 11:22:00,50.2,48.7,30.22,NNE,22,6.7,13.0,95,0.00,,,0.04,WUHU21623XXSP,2013-09-16 15:22:00,
2013-09-16 11:27:00,50.2,48.7,30.22,NE,45,0.0,12.3,95,0.00,,,0.04,WUHU21623XXSP,2013-09-16 15:27:00,
2013-09-16 11:32:00,50.2,48.7,30.22,NNE,22,0.0,13.2,95,0.00,,,0.04,WUHU21623XXSP,2013-09-16 15:32:00,
2013-09-16 11:37:00,50.4,48.9,30.22,NE,45,0.0,13.2,95,0.00,,,0.04,WUHU21623XXSP,2013-09-16 15:37:00,
2013-09-16 11:42:00,50.2,48.7,30.22,NE,45,0.0,11.9,95,0.00,,,0.04,WUHU21623XXSP,2013-09-16 15:42:00,
2013-09-16 11:47:00,50.4,48.9,30.22,ENE,67,0.0,11.2,95,0.00,,,0.04,WUHU21623XXSP,2013-09-16 15:47:00,
2013-09-16 11:52:00,50.5,49.1,30.22,NE,45,5.6,11.2,95,0.00,,,0.04,WUHU21623XXSP,2013-09-16 15:52:00,
2013-09-16 11:57:00,50.5,49.1,30.22,NE,45,0.0,10.3,95,0.00,,,0.04,WUHU21623XXSP,2013-09-16 15:57:00,
2013-09-16 12:02:00,50.5,48.8,30.22,NE,45,2.5,13.2,94,0.00,,,0.04,WUHU21623XXSP,2013-09-16 16:02:00,
2013-09-16 12:07:00,50.5,48.8,30.22,NNE,22,0.0,13.2,94,0.00,,,0.04,WUHU21623XXSP,2013-09-16 16:07:00,
2013-09-16 12:12:00,50.5,48.8,30.23,NE,45,0.0,8.7,94,0.00,,,0.04,WUHU21623XXSP,2013-09-16 16:12:00,
2013-09-16 12:17:00,50.5,48.8,30.23,NNE,22,0.0,7.8,94,0.00,,,0.04,WUHU21623XXSP,2013-09-16 16:17:00,
2013-09-16 12:22:00,50.5,48.8,30.23,NNE,22,0.0,10.1,94,0.00,,,0.04,WUHU21623XXSP,2013-09-16 16:22:00,
2013-09-16 12:27:00,50.5,48.5,30.23,NE,45,6.9,10.1,93,0.00,,,0.04,WUHU21623XXSP,2013-09-16 16:27:00,
2013-09-16 12:32:00,50.4,48.3,30.23,NE,45,0.7,11.0,93,0.00,,,0.04,WUHU21623XXSP,2013-09-16 16:32:00,
2013-09-16 12:37:00,50.5,48.5,30.23,NE,45,0.0,11.0,93,0.00,,,0.04,WUHU21623XXSP,2013-09-16 16:37:00,
2013-09-16 12:42:00,50.4,48.3,30.23,NNE,22,6.9,10.1,93,0.00,,,0.04,WUHU21623XXSP,2013-09-16 16:42:00,
2013-09-16 12:47:00,50.4,48.3,30.23,NE,45,0.0,10.3,93,0.00,,,0.04,WUHU21623XXSP,2013-09-16 16:47:00,
2013-09-16 12:52:00,50.4,48.1,30.24,North,0,4.7,10.3,92,0.00,,,0.04,WUHU21623XXSP,2013-09-16 16:52:00,
2013-09-16 12:57:00,50.2,47.6,30.24,NE,45,4.0,10.1,91,0.00,,,0.04,WUHU21623XXSP,2013-09-16 16:57:00,
2013-09-16 13:02:00,50.5,47.9,30.24,NNE,22,6.7,10.1,91,0.00,,,0.04,WUHU21623XXSP,2013-09-16 17:02:00,
2013-09-16 13:07:00,50.4,47.8,30.24,NNE,22,0.0,9.2,91,0.00,,,0.04,WUHU21623XXSP,2013-09-16 17:07:00,
2013-09-16 13:12:00,50.2,47.3,30.24,NNE,22,0.0,9.8,90,0.00,,,0.04,WUHU21623XXSP,2013-09-16 17:12:00,
2013-09-16 13:17:00,50.2,47.3,30.24,NNE,22,7.4,9.8,90,0.00,,,0.04,WUHU21623XXSP,2013-09-16 17:17:00,
2013-09-16 13:22:00,50.4,47.5,30.25,NNE,22,8.3,9.2,90,0.00,,,0.04,WUHU21623XXSP,2013-09-16 17:22:00,
2013-09-16 13:27:00,50.2,47.0,30.25,NNE,22,0.0,11.2,89,0.00,,,0.04,WUHU21623XXSP,2013-09-16 17:27:00,
2013-09-16 13:32:00,50.2,47.0,30.25,ENE,67,0.0,12.3,89,0.00,,,0.04,WUHU21623XXSP,2013-09-16 17:32:00,
2013-09-16 13:37:00,50.4,47.2,30.25,NNE,22,0.0,12.3,89,0.00,,,0.04,WUHU21623XXSP,2013-09-16 17:37:00,
2013-09-16 13:42:00,50.5,47.4,30.25,NE,45,0.0,10.1,89,0.00,,,0.04,WUHU21623XXSP,2013-09-16 17:42:00,
2013-09-16 13:47:00,50.7,47.5,30.25,NNE,22,0.0,8.7,89,0.00,,,0.04,WUHU21623XXSP,2013-09-16 17:47:00,
2013-09-16 13:52:00,50.9,47.4,30.25,NNE,22,3.1,8.7,88,0.00,,,0.04,WUHU21623XXSP,2013-09-16 17:52:00,
2013-09-16 13:57:00,51.1,47.6,30.25,NNE,22,2.9,7.4,88,0.00,,,0.04,WUHU21623XXSP,2013-09-16 17:57:00,
2013-09-16 14:02:00,51.1,47.6,30.25,NNE,22,0.0,7.4,88,0.00,,,0.04,WUHU21623XXSP,2013-09-16 18:02:00,
2013-09-16 14:07:00,51.1,47.3,30.25,NNE,22,3.4,9.6,87,0.00,,,0.04,WUHU21623XXSP,2013-09-16 18:07:00,
2013-09-16 14:12:00,50.9,47.1,30.25,NNE,22,0.9,9.6,87,0.00,,,0.04,WUHU21623XXSP,2013-09-16 18:12:00,
2013-09-16 14:17:00,50.9,47.1,30.25,NNE,22,0.0,8.9,87,0.00,,,0.04,WUHU21623XXSP,2013-09-16 18:17:00,
2013-09-16 14:22:00,50.9,47.1,30.26,NE,45,0.0,10.1,87,0.00,,,0.04,WUHU21623XXSP,2013-09-16 18:22:00,
2013-09-16 14:27:00,50.9,47.1,30.26,NNE,22,0.0,10.1,87,0.00,,,0.04,WUHU21623XXSP,2013-09-16 18:27:00,
2013-09-16 14:32:00,50.9,46.8,30.26,North,0,0.0,11.6,86,0.00,,,0.04,WUHU21623XXSP,2013-09-16 18:32:00,
2013-09-16 14:37:00,50.7,46.3,30.26,NNE,22,5.1,11.6,85,0.00,,,0.04,WUHU21623XXSP,2013-09-16 18:37:00,
2013-09-16 14:42:00,50.5,46.1,30.26,NNE,22,0.0,10.5,85,0.00,,,0.04,WUHU21623XXSP,2013-09-16 18:42:00,
2013-09-16 14:47:00,50.7,46.6,30.26,NNE,22,6.3,10.5,86,0.00,,,0.04,WUHU21623XXSP,2013-09-16 18:47:00,
2013-09-16 14:52:00,50.7,46.3,30.26,NNE,22,0.0,10.1,85,0.00,,,0.04,WUHU21623XXSP,2013-09-16 18:52:00,
2013-09-16 14:57:00,50.9,46.5,30.26,NNE,22,0.0,6.9,85,0.00,,,0.04,WUHU21623XXSP,2013-09-16 18:57:00,
2013-09-16 15:02:00,51.3,46.9,30.26,NNE,22,0.0,6.5,85,0.00,,,0.04,WUHU21623XXSP,2013-09-16 19:02:00,
2013-09-16 15:07:00,51.8,47.1,30.26,NNE,22,0.0,6.5,84,0.00,,,0.04,WUHU21623XXSP,2013-09-16 19:07:00,
2013-09-16 15:12:00,52.2,47.4,30.26,NE,45,0.0,3.8,84,0.00,,,0.04,WUHU21623XXSP,2013-09-16 19:12:00,
2013-09-16 15:17:00,52.3,47.3,30.26,ENE,67,0.0,3.8,83,0.00,,,0.04,WUHU21623XXSP,2013-09-16 19:17:00,
2013-09-16 15:22:00,52.3,47.3,30.26,NE,45,0.0,3.4,83,0.00,,,0.04,WUHU21623XXSP,2013-09-16 19:22:00,
2013-09-16 15:27:00,52.2,47.1,30.26,NE,45,0.0,3.1,83,0.00,,,0.04,WUHU21623XXSP,2013-09-16 19:27:00,
2013-09-16 15:32:00,52.3,47.3,30.26,NE,45,0.0,2.7,83,0.00,,,0.04,WUHU21623XXSP,2013-09-16 19:32:00,
2013-09-16 15:37:00,52.0,47.0,30.26,NE,45,0.0,3.8,83,0.00,,,0.04,WUHU21623XXSP,2013-09-16 19:37:00,
2013-09-16 15:42:00,51.6,46.6,30.26,North,0,4.5,8.1,83,0.00,,,0.04,WUHU21623XXSP,2013-09-16 19:42:00,
2013-09-16 15:47:00,51.4,46.4,30.26,North,0,2.2,9.2,83,0.00,,,0.04,WUHU21623XXSP,2013-09-16 19:47:00,
2013-09-16 15:52:00,51.4,46.4,30.26,NNE,22,6.3,11.4,83,0.00,,,0.04,WUHU21623XXSP,2013-09-16 19:52:00,
2013-09-16 15:57:00,51.1,46.1,30.26,NNE,22,5.4,12.3,83,0.00,,,0.04,WUHU21623XXSP,2013-09-16 19:57:00,
2013-09-16 16:02:00,51.1,46.4,30.26,North,0,6.5,12.3,84,0.00,,,0.04,WUHU21623XXSP,2013-09-16 20:02:00,
2013-09-16 16:07:00,50.7,46.0,30.26,North,0,0.0,8.3,84,0.00,,,0.04,WUHU21623XXSP,2013-09-16 20:07:00,
2013-09-16 16:12:00,50.9,46.2,30.26,North,0,0.0,9.2,84,0.00,,,0.04,WUHU21623XXSP,2013-09-16 20:12:00,
2013-09-16 16:17:00,50.7,46.0,30.26,North,0,0.0,9.2,84,0.00,,,0.04,WUHU21623XXSP,2013-09-16 20:17:00,
2013-09-16 16:22:00,50.9,46.2,30.26,North,0,0.0,8.3,84,0.00,,,0.04,WUHU21623XXSP,2013-09-16 20:22:00,
2013-09-16 16:27:00,50.9,46.2,30.26,NNE,22,1.3,7.8,84,0.00,,,0.04,WUHU21623XXSP,2013-09-16 20:27:00,
2013-09-16 16:32:00,50.9,46.2,30.26,NNE,22,0.0,7.8,84,0.00,,,0.04,WUHU21623XXSP,2013-09-16 20:32:00,
2013-09-16 16:37:00,50.9,45.9,30.27,NNE,22,6.7,6.7,83,0.00,,,0.04,WUHU21623XXSP,2013-09-16 20:37:00,
2013-09-16 16:42:00,50.9,45.9,30.27,NNE,22,3.1,9.2,83,0.00,,,0.04,WUHU21623XXSP,2013-09-16 20:42:00,
2013-09-16 16:47:00,50.9,45.6,30.27,NNE,22,0.0,9.2,82,0.00,,,0.04,WUHU21623XXSP,2013-09-16 20:47:00,
2013-09-16 16:52:00,51.1,45.8,30.27,NNE,22,3.4,7.4,82,0.00,,,0.04,WUHU21623XXSP,2013-09-16 20:52:00,
2013-09-16 16:57:00,51.4,46.4,30.27,North,0,6.5,8.3,83,0.00,,,0.04,WUHU21623XXSP,2013-09-16 20:57:00,
2013-09-16 17:02:00,51.6,46.0,30.27,NNE,22,0.0,8.3,81,0.00,,,0.04,WUHU21623XXSP,2013-09-16 21:02:00,
2013-09-16 17:07:00,52.0,46.3,30.27,NNE,22,4.3,6.9,81,0.00,,,0.04,WUHU21623XXSP,2013-09-16 21:07:00,
2013-09-16 17:12:00,51.8,45.9,30.27,NNE,22,0.0,6.9,80,0.00,,,0.04,WUHU21623XXSP,2013-09-16 21:12:00,
2013-09-16 17:17:00,51.6,45.7,30.27,NNE,22,0.0,6.0,80,0.00,,,0.04,WUHU21623XXSP,2013-09-16 21:17:00,
2013-09-16 17:22:00,51.8,45.9,30.27,NNE,22,1.3,1.3,80,0.00,,,0.04,WUHU21623XXSP,2013-09-16 21:22:00,
2013-09-16 17:27:00,52.3,46.0,30.28,NNE,22,3.6,6.0,79,0.00,,,0.04,WUHU21623XXSP,2013-09-16 21:27:00,
2013-09-16 17:32:00,53.4,46.8,30.28,NNE,22,0.0,6.0,78,0.00,,,0.04,WUHU21623XXSP,2013-09-16 21:32:00,
2013-09-16 17:37:00,53.6,46.6,30.28,NNW,337,0.0,5.8,77,0.00,,,0.04,WUHU21623XXSP,2013-09-16 21:37:00,
2013-09-16 17:42:00,54.5,46.7,30.28,NNE,22,0.0,7.4,75,0.00,,,0.04,WUHU21623XXSP,2013-09-16 21:42:00,
2013-09-16 17:47:00,55.4,46.9,30.28,NNE,22,0.0,7.4,73,0.00,,,0.04,WUHU21623XXSP,2013-09-16 21:47:00,
2013-09-16 17:52:00,55.9,47.4,30.28,NNE,22,0.0,5.1,73,0.00,,,0.04,WUHU21623XXSP,2013-09-16 21:52:00,
2013-09-16 17:57:00,56.5,47.2,30.28,NNE,22,0.0,0.7,71,0.00,,,0.04,WUHU21623XXSP,2013-09-16 21:57:00,
2013-09-16 18:02:00,56.8,47.5,30.28,NNE,22,0.0,1.6,71,0.00,,,0.04,WUHU21623XXSP,2013-09-16 22:02:00,
2013-09-16 18:07:00,56.8,47.2,30.28,NE,45,0.0,1.6,70,0.00,,,0.04,WUHU21623XXSP,2013-09-16 22:07:00,
2013-09-16 18:12:00,55.9,46.3,30.28,ENE,67,0.0,1.6,70,0.00,,,0.04,WUHU21623XXSP,2013-09-16 22:12:00,
2013-09-16 18:17:00,55.2,46.0,30.28,ENE,67,0.0,1.6,71,0.00,,,0.04,WUHU21623XXSP,2013-09-16 22:17:00,
2013-09-16 18:22:00,54.3,45.5,30.28,ENE,67,0.0,1.6,72,0.00,,,0.04,WUHU21623XXSP,2013-09-16 22:22:00,
2013-09-16 18:27:00,53.8,44.9,30.28,ENE,67,0.0,0.0,72,0.00,,,0.04,WUHU21623XXSP,2013-09-16 22:27:00,
2013-09-16 18:32:00,52.9,44.5,30.28,ENE,67,0.0,0.0,73,0.00,,,0.04,WUHU21623XXSP,2013-09-16 22:32:00,
2013-09-16 18:37:00,52.5,44.5,30.28,ENE,67,0.0,0.0,74,0.00,,,0.04,WUHU21623XXSP,2013-09-16 22:37:00,
2013-09-16 18:42:00,53.1,45.0,30.28,ENE,67,0.0,0.0,74,0.00,,,0.04,WUHU21623XXSP,2013-09-16 22:42:00,
2013-09-16 18:47:00,53.4,45.3,30.28,ENE,67,0.0,0.0,74,0.00,,,0.04,WUHU21623XXSP,2013-09-16 22:47:00,
2013-09-16 18:52:00,52.9,44.8,30.28,ENE,67,0.0,0.0,74,0.00,,,0.04,WUHU21623XXSP,2013-09-16 22:52:00,
2013-09-16 18:57:00,52.2,44.5,30.28,ENE,67,0.0,0.0,75,0.00,,,0.04,WUHU21623XXSP,2013-09-16 22:57:00,
2013-09-16 19:02:00,51.4,43.8,30.28,ENE,67,0.0,0.0,75,0.00,,,0.04,WUHU21623XXSP,2013-09-16 23:02:00,
2013-09-16 19:07:00,51.1,43.8,30.28,ENE,67,0.0,0.0,76,0.00,,,0.04,WUHU21623XXSP,2013-09-16 23:07:00,
2013-09-16 19:12:00,50.4,43.4,30.29,ENE,67,0.0,0.0,77,0.00,,,0.04,WUHU21623XXSP,2013-09-16 23:12:00,
2013-09-16 19:17:00,49.6,43.0,30.29,ENE,67,0.0,0.0,78,0.00,,,0.04,WUHU21623XXSP,2013-09-16 23:17:00,
2013-09-16 19:22:00,49.1,43.2,30.29,ENE,67,0.0,0.0,80,0.00,,,0.04,WUHU21623XXSP,2013-09-16 23:22:00,
2013-09-16 19:27:00,48.4,42.7,30.29,ENE,67,0.0,0.0,81,0.00,,,0.04,WUHU21623XXSP,2013-09-16 23:27:00,
2013-09-16 19:32:00,47.8,42.6,30.30,ENE,67,0.0,0.0,82,0.00,,,0.04,WUHU21623XXSP,2013-09-16 23:32:00,
2013-09-16 19:37:00,47.3,42.1,30.30,ENE,67,0.0,0.0,82,0.00,,,0.04,WUHU21623XXSP,2013-09-16 23:37:00,
2013-09-16 19:42:00,46.8,41.9,30.30,ENE,67,0.0,0.0,83,0.00,,,0.04,WUHU21623XXSP,2013-09-16 23:42:00,
2013-09-16 19:47:00,46.2,41.7,30.30,ENE,67,0.0,0.0,84,0.00,,,0.04,WUHU21623XXSP,2013-09-16 23:47:00,
2013-09-16 19:52:00,45.7,41.1,30.30,ENE,67,0.0,0.0,84,0.00,,,0.04,WUHU21623XXSP,2013-09-16 23:52:00,
2013-09-16 19:57:00,45.1,40.9,30.30,ENE,67,0.0,0.0,85,0.00,,,0.04,WUHU21623XXSP,2013-09-16 23:57:00,
2013-09-16 20:02:00,45.0,40.7,30.31,ENE,67,0.0,0.0,85,0.00,,,0.04,WUHU21623XXSP,2013-09-17 00:02:00,
2013-09-16 20:07:00,44.4,40.5,30.31,ENE,67,0.0,0.0,86,0.00,,,0.04,WUHU21623XXSP,2013-09-17 00:07:00,
2013-09-16 20:12:00,44.2,40.3,30.31,ENE,67,0.0,0.0,86,0.00,,,0.04,WUHU21623XXSP,2013-09-17 00:12:00,
2013-09-16 20:17:00,43.9,40.3,30.31,ENE,67,0.0,0.0,87,0.00,,,0.04,WUHU21623XXSP,2013-09-17 00:17:00,
2013-09-16 20:22:00,43.7,40.1,30.31,ENE,67,0.0,0.0,87,0.00,,,0.04,WUHU21623XXSP,2013-09-17 00:22:00,
2013-09-16 20:27:00,43.5,39.9,30.32,ENE,67,0.0,0.0,87,0.00,,,0.04,WUHU21623XXSP,2013-09-17 00:27:00,
2013-09-16 20:32:00,43.5,39.9,30.32,ENE,67,0.0,0.0,87,0.00,,,0.04,WUHU21623XXSP,2013-09-17 00:32:00,
2013-09-16 20:37:00,43.2,39.8,30.32,ENE,67,0.0,0.0,88,0.00,,,0.04,WUHU21623XXSP,2013-09-17 00:37:00,
2013-09-16 20:42:00,43.0,39.7,30.32,ENE,67,0.0,0.0,88,0.00,,,0.04,WUHU21623XXSP,2013-09-17 00:42:00,
2013-09-16 20:47:00,42.6,39.3,30.32,ENE,67,0.0,0.0,88,0.00,,,0.04,WUHU21623XXSP,2013-09-17 00:47:00,
2013-09-16 20:52:00,42.4,39.1,30.32,ENE,67,0.0,0.0,88,0.00,,,0.04,WUHU21623XXSP,2013-09-17 00:52:00,
2013-09-16 20:57:00,42.4,39.4,30.32,ENE,67,0.0,0.0,89,0.00,,,0.04,WUHU21623XXSP,2013-09-17 00:57:00,
2013-09-16 21:02:00,42.3,39.3,30.32,ENE,67,0.0,0.0,89,0.00,,,0.04,WUHU21623XXSP,2013-09-17 01:02:00,
2013-09-16 21:07:00,42.1,39.1,30.33,ENE,67,0.0,0.0,89,0.00,,,0.04,WUHU21623XXSP,2013-09-17 01:07:00,
2013-09-16 21:12:00,41.9,38.9,30.33,ENE,67,0.0,0.0,89,0.00,,,0.04,WUHU21623XXSP,2013-09-17 01:12:00,
2013-09-16 21:17:00,41.7,38.7,30.33,ENE,67,0.0,0.0,89,0.00,,,0.04,WUHU21623XXSP,2013-09-17 01:17:00,
2013-09-16 21:22:00,41.5,38.5,30.33,ENE,67,0.0,0.0,89,0.00,,,0.04,WUHU21623XXSP,2013-09-17 01:22:00,
2013-09-16 21:27:00,41.2,38.2,30.32,ENE,67,0.0,0.0,89,0.00,,,0.04,WUHU21623XXSP,2013-09-17 01:27:00,
2013-09-16 21:32:00,40.8,38.1,30.33,ENE,67,0.0,0.0,90,0.00,,,0.04,WUHU21623XXSP,2013-09-17 01:32:00,
2013-09-16 21:37:00,40.8,38.1,30.33,ENE,67,0.0,0.0,90,0.00,,,0.04,WUHU21623XXSP,2013-09-17 01:37:00,
2013-09-16 21:42:00,40.8,38.1,30.33,ENE,67,0.0,0.0,90,0.00,,,0.04,WUHU21623XXSP,2013-09-17 01:42:00,
2013-09-16 21:47:00,40.6,37.9,30.33,ENE,67,0.0,0.0,90,0.00,,,0.04,WUHU21623XXSP,2013-09-17 01:47:00,
2013-09-16 21:52:00,40.6,37.9,30.33,ENE,67,0.0,0.0,90,0.00,,,0.04,WUHU21623XXSP,2013-09-17 01:52:00,
2013-09-16 21:57:00,40.3,37.6,30.33,ENE,67,0.0,0.0,90,0.00,,,0.04,WUHU21623XXSP,2013-09-17 01:57:00,
2013-09-16 22:02:00,40.3,37.6,30.33,ENE,67,0.0,0.0,90,0.00,,,0.04,WUHU21623XXSP,2013-09-17 02:02:00,
2013-09-16 22:07:00,40.3,37.6,30.33,ENE,67,0.0,0.0,90,0.00,,,0.04,WUHU21623XXSP,2013-09-17 02:07:00,
2013-09-16 22:12:00,40.1,37.4,30.34,ENE,67,0.0,0.0,90,0.00,,,0.04,WUHU21623XXSP,2013-09-17 02:12:00,
2013-09-16 22:17:00,39.9,37.5,30.33,ENE,67,0.0,0.0,91,0.00,,,0.04,WUHU21623XXSP,2013-09-17 02:17:00,
2013-09-16 22:22:00,39.7,37.3,30.33,ENE,67,0.0,0.0,91,0.00,,,0.04,WUHU21623XXSP,2013-09-17 02:22:00,
2013-09-16 22:27:00,39.6,37.1,30.33,ENE,67,0.0,0.0,91,0.00,,,0.04,WUHU21623XXSP,2013-09-17 02:27:00,
2013-09-16 22:32:00,39.6,37.1,30.34,ENE,67,0.0,0.0,91,0.00,,,0.04,WUHU21623XXSP,2013-09-17 02:32:00,
2013-09-16 22:37:00,39.6,37.1,30.34,ENE,67,0.0,0.0,91,0.00,,,0.04,WUHU21623XXSP,2013-09-17 02:37:00,
2013-09-16 22:42:00,39.6,37.1,30.34,ENE,67,0.0,0.0,91,0.00,,,0.04,WUHU21623XXSP,2013-09-17 02:42:00,
2013-09-16 22:47:00,39.6,37.1,30.33,ENE,67,0.0,0.0,91,0.00,,,0.04,WUHU21623XXSP,2013-09-17 02:47:00,
2013-09-16 22:52:00,39.4,37.0,30.34,ENE,67,0.0,0.0,91,0.00,,,0.04,WUHU21623XXSP,2013-09-17 02:52:00,
2013-09-16 22:57:00,39.4,37.2,30.34,ENE,67,0.0,0.0,92,0.00,,,0.04,WUHU21623XXSP,2013-09-17 02:57:00,
2013-09-16 23:02:00,39.0,36.9,30.34,ENE,67,0.0,0.0,92,0.00,,,0.04,WUHU21623XXSP,2013-09-17 03:02:00,
2013-09-16 23:07:00,38.8,36.7,30.34,ENE,67,0.0,0.0,92,0.00,,,0.04,WUHU21623XXSP,2013-09-17 03:07:00,
2013-09-16 23:12:00,38.8,36.4,30.34,ENE,67,0.0,0.0,91,0.00,,,0.04,WUHU21623XXSP,2013-09-17 03:12:00,
2013-09-16 23:17:00,38.5,36.0,30.34,ENE,67,0.0,0.0,91,0.00,,,0.04,WUHU21623XXSP,2013-09-17 03:17:00,
2013-09-16 23:22:00,38.5,36.0,30.34,ENE,67,0.0,0.0,91,0.00,,,0.04,WUHU21623XXSP,2013-09-17 03:22:00,
2013-09-16 23:27:00,38.5,36.3,30.34,ENE,67,0.0,0.0,92,0.00,,,0.04,WUHU21623XXSP,2013-09-17 03:27:00,
2013-09-16 23:32:00,38.3,36.1,30.34,ENE,67,0.0,0.0,92,0.00,,,0.04,WUHU21623XXSP,2013-09-17 03:32:00,
2013-09-16 23:37:00,38.1,36.0,30.34,ENE,67,0.0,0.0,92,0.00,,,0.04,WUHU21623XXSP,2013-09-17 03:37:00,
2013-09-16 23:42:00,38.1,36.0,30.35,ENE,67,0.0,0.0,92,0.00,,,0.04,WUHU21623XXSP,2013-09-17 03:42:00,
2013-09-16 23:47:00,37.9,35.8,30.34,ENE,67,0.0,0.0,92,0.00,,,0.04,WUHU21623XXSP,2013-09-17 03:47:00,
2013-09-16 23:52:00,37.8,35.6,30.35,ENE,67,0.0,0.0,92,0.00,,,0.04,WUHU21623XXSP,2013-09-17 03:52:00,
2013-09-16 23:57:00,37.8,35.6,30.35,ENE,67,0.0,0.0,92,0.00,,,0.04,WUHU21623XXSP,2013-09-17 03:57:00,